�������l�o���
Date,Time,MP-1(��Sv/h),MP-2(��Sv/h),MP-3(��Sv/h),MP-4(��Sv/h),MP-5(��Sv/h),MP-6(��Sv/h),MP-7(��Sv/h),MP-8(��Sv/h),����,����(m/s),���J
2018/01/22,00:00,0.872,1.458,0.918,1.719,1.165,0.483,0.866,0.833,�k��,10.2,��
2018/01/22,00:10,0.873,1.457,0.915,1.722,1.165,0.483,0.868,0.834,�k��,10.0,��
2018/01/22,00:20,0.872,1.457,0.915,1.721,1.166,0.483,0.866,0.832,�k��,11.1,��
2018/01/22,00:30,0.870,1.455,0.913,1.718,1.165,0.483,0.866,0.831,�k��,8.3,��
2018/01/22,00:40,0.872,1.454,0.916,1.721,1.164,0.483,0.866,0.833,�k��,8.5,��
2018/01/22,00:50,0.870,1.456,0.914,1.721,1.164,0.484,0.866,0.833,�k��,9.3,��
2018/01/22,01:00,0.872,1.457,0.914,1.721,1.162,0.484,0.867,0.833,�k��,8.9,��
2018/01/22,01:10,0.871,1.457,0.914,1.724,1.164,0.483,0.865,0.832,�k�k��,8.3,��
2018/01/22,01:20,0.872,1.455,0.915,1.719,1.166,0.483,0.865,0.834,�k��,8.7,��
2018/01/22,01:30,0.873,1.455,0.916,1.721,1.163,0.483,0.865,0.832,�k��,9.1,��
2018/01/22,01:40,0.870,1.457,0.915,1.716,1.163,0.483,0.865,0.833,�k��,8.6,��
2018/01/22,01:50,0.871,1.457,0.915,1.722,1.162,0.484,0.865,0.833,�k��,8.4,��
2018/01/22,02:00,0.870,1.454,0.913,1.721,1.161,0.483,0.866,0.833,�k��,7.6,��
2018/01/22,02:10,0.872,1.456,0.917,1.720,1.165,0.483,0.867,0.833,�k��,7.8,��
2018/01/22,02:20,0.871,1.456,0.915,1.723,1.162,0.483,0.865,0.832,�k��,9.3,��
2018/01/22,02:30,0.870,1.457,0.918,1.722,1.162,0.484,0.865,0.831,�k��,9.6,��
2018/01/22,02:40,0.872,1.458,0.916,1.718,1.162,0.484,0.867,0.834,�k��,9.5,��
2018/01/22,02:50,0.870,1.458,0.915,1.720,1.161,0.483,0.867,0.832,�k��,3.4,��
2018/01/22,03:00,0.870,1.455,0.915,1.720,1.164,0.483,0.866,0.832,�k,1.2,��
2018/01/22,03:10,0.869,1.457,0.915,1.722,1.163,0.483,0.866,0.831,�k��,5.0,��
2018/01/22,03:20,0.872,1.456,0.917,1.719,1.162,0.483,0.866,0.834,�k��,5.4,��
2018/01/22,03:30,0.870,1.456,0.915,1.723,1.162,0.483,0.865,0.831,�k�k��,2.5,��
2018/01/22,03:40,0.870,1.454,0.913,1.721,1.163,0.482,0.865,0.831,�k,2.6,��
2018/01/22,03:50,0.871,1.458,0.916,1.722,1.163,0.484,0.866,0.833,�k�k��,5.7,��
2018/01/22,04:00,0.871,1.456,0.916,1.721,1.163,0.483,0.867,0.832,�k��,6.9,��
2018/01/22,04:10,0.871,1.453,0.914,1.723,1.163,0.482,0.865,0.833,�k��,5.2,��
2018/01/22,04:20,0.871,1.459,0.917,1.722,1.161,0.482,0.865,0.832,�k�k��,3.8,��
2018/01/22,04:30,0.870,1.455,0.914,1.720,1.162,0.483,0.865,0.831,�k,3.1,��
2018/01/22,04:40,0.869,1.455,0.917,1.719,1.161,0.484,0.866,0.831,�k�k��,4.8,��
2018/01/22,04:50,0.872,1.455,0.914,1.719,1.161,0.481,0.866,0.833,�k�k��,4.2,��
2018/01/22,05:00,0.869,1.455,0.914,1.717,1.160,0.484,0.862,0.832,�k,2.9,��
2018/01/22,05:10,0.870,1.456,0.915,1.720,1.160,0.483,0.863,0.832,�k,2.8,��
2018/01/22,05:20,0.870,1.453,0.914,1.720,1.161,0.482,0.865,0.832,�k,4.1,��
2018/01/22,05:30,0.870,1.456,0.912,1.721,1.159,0.484,0.865,0.834,�k�k��,5.3,��
2018/01/22,05:40,0.869,1.455,0.916,1.719,1.161,0.484,0.864,0.832,�k,6.2,��
2018/01/22,05:50,0.870,1.454,0.917,1.720,1.160,0.483,0.865,0.834,�k�k��,5.9,��
2018/01/22,06:00,0.870,1.455,0.916,1.720,1.160,0.483,0.862,0.832,�k�k��,5.8,��
2018/01/22,06:10,0.870,1.455,0.916,1.721,1.159,0.481,0.864,0.832,�k�k��,5.9,��
2018/01/22,06:20,0.871,1.455,0.914,1.723,1.160,0.481,0.865,0.831,�k,4.6,��
2018/01/22,06:30,0.868,1.454,0.914,1.721,1.160,0.482,0.866,0.832,�k�k��,5.2,��
2018/01/22,06:40,0.869,1.454,0.914,1.717,1.159,0.482,0.864,0.832,�k�k��,6.6,��
2018/01/22,06:50,0.869,1.455,0.913,1.719,1.161,0.483,0.865,0.833,�k�k��,7.0,��
2018/01/22,07:00,0.870,1.454,0.916,1.722,1.160,0.484,0.865,0.832,�k�k��,6.9,��
2018/01/22,07:10,0.871,1.454,0.912,1.719,1.160,0.482,0.865,0.832,�k�k��,7.0,��
2018/01/22,07:20,0.870,1.456,0.913,1.721,1.159,0.483,0.863,0.831,�k�k��,6.4,��
2018/01/22,07:30,0.870,1.457,0.912,1.722,1.159,0.481,0.863,0.831,�k�k��,6.6,��
2018/01/22,07:40,0.871,1.456,0.914,1.723,1.161,0.483,0.864,0.832,�k�k��,6.9,��
2018/01/22,07:50,0.868,1.455,0.910,1.719,1.158,0.481,0.863,0.831,�k�k��,6.6,��
2018/01/22,08:00,0.869,1.454,0.915,1.725,1.159,0.483,0.863,0.831,�k�k��,6.5,��
2018/01/22,08:10,0.869,1.453,0.915,1.718,1.161,0.483,0.863,0.832,�k�k��,5.8,��
2018/01/22,08:20,0.869,1.453,0.913,1.720,1.160,0.483,0.862,0.832,�k�k��,5.9,��
2018/01/22,08:30,0.870,1.451,0.913,1.720,1.164,0.483,0.863,0.831,�k�k��,5.1,��
2018/01/22,08:40,0.871,1.458,0.914,1.720,1.160,0.482,0.865,0.832,�k�k��,5.3,��
2018/01/22,08:50,0.869,1.453,0.917,1.722,1.162,0.483,0.865,0.832,�k�k��,4.7,��
2018/01/22,09:00,0.870,1.455,0.914,1.722,1.159,0.481,0.863,0.832,�k�k��,4.7,��
2018/01/22,09:10,0.871,1.454,0.915,1.719,1.159,0.482,0.865,0.832,�k�k��,5.0,��
2018/01/22,09:20,0.870,1.452,0.916,1.722,1.161,0.482,0.864,0.832,�k�k��,4.7,��
2018/01/22,09:30,0.870,1.453,0.916,1.723,1.162,0.483,0.864,0.831,�k�k��,5.2,��
2018/01/22,09:40,0.870,1.452,0.916,1.722,1.161,0.481,0.865,0.834,�k�k��,3.9,��
2018/01/22,09:50,0.871,1.454,0.915,1.720,1.163,0.482,0.864,0.833,�k,4.1,��
2018/01/22,10:00,0.869,1.453,0.913,1.721,1.161,0.484,0.866,0.834,�k,4.0,��
2018/01/22,10:10,0.870,1.453,0.916,1.722,1.162,0.482,0.865,0.832,�k�k��,5.1,��
2018/01/22,10:20,0.871,1.453,0.914,1.722,1.162,0.481,0.864,0.833,�k�k��,5.9,��
2018/01/22,10:30,0.871,1.455,0.914,1.722,1.162,0.483,0.865,0.831,�k,5.6,��
2018/01/22,10:40,0.871,1.451,0.917,1.721,1.166,0.482,0.865,0.831,�k,6.5,��
2018/01/22,10:50,0.870,1.451,0.917,1.721,1.164,0.482,0.864,0.830,�k,5.8,��
2018/01/22,11:00,0.867,1.449,0.915,1.723,1.164,0.482,0.865,0.832,�k,5.8,��
2018/01/22,11:10,0.871,1.450,0.917,1.723,1.165,0.482,0.864,0.831,�k,5.9,��
2018/01/22,11:20,0.870,1.455,0.917,1.723,1.166,0.483,0.866,0.831,�k,6.8,��
2018/01/22,11:30,0.872,1.454,0.916,1.724,1.165,0.481,0.867,0.832,�k,6.1,��
2018/01/22,11:40,0.870,1.456,0.916,1.722,1.165,0.483,0.867,0.832,�k,5.4,��
2018/01/22,11:50,0.875,1.457,0.918,1.721,1.167,0.481,0.866,0.833,�k,6.0,��
2018/01/22,12:00,0.872,1.457,0.918,1.725,1.165,0.481,0.864,0.833,�k,6.3,��
2018/01/22,12:10,0.871,1.457,0.916,1.723,1.168,0.481,0.868,0.833,�k,6.0,��
2018/01/22,12:20,0.874,1.456,0.918,1.723,1.167,0.483,0.866,0.833,�k,5.8,��
2018/01/22,12:30,0.874,1.460,0.917,1.723,1.167,0.483,0.868,0.833,�k,5.6,��
2018/01/22,12:40,0.873,1.457,0.917,1.723,1.166,0.483,0.866,0.833,�k,5.4,��
2018/01/22,12:50,0.874,1.459,0.918,1.722,1.166,0.481,0.868,0.831,�k�k��,5.7,��
2018/01/22,13:00,0.874,1.460,0.917,1.722,1.166,0.483,0.867,0.833,�k�k��,5.2,��
2018/01/22,13:10,0.872,1.455,0.916,1.720,1.166,0.483,0.866,0.834,�k�k��,4.4,��
2018/01/22,13:20,0.874,1.456,0.917,1.724,1.170,0.483,0.866,0.833,�k�k��,3.4,��
2018/01/22,13:30,0.873,1.456,0.918,1.724,1.166,0.484,0.866,0.832,�k�k��,4.1,��
2018/01/22,13:40,0.873,1.455,0.915,1.724,1.167,0.483,0.866,0.833,�k�k��,4.3,��
2018/01/22,13:50,0.873,1.458,0.919,1.726,1.165,0.484,0.865,0.834,�k�k��,5.4,��
2018/01/22,14:00,0.875,1.454,0.915,1.726,1.167,0.483,0.867,0.834,�k�k��,5.8,��
2018/01/22,14:10,0.871,1.457,0.917,1.724,1.165,0.485,0.868,0.834,�k�k��,4.8,��
2018/01/22,14:20,0.873,1.455,0.916,1.727,1.167,0.483,0.866,0.834,�k��,4.3,��
2018/01/22,14:30,0.873,1.458,0.915,1.725,1.167,0.485,0.867,0.833,�k�k��,4.0,��
2018/01/22,14:40,0.874,1.457,0.916,1.725,1.171,0.484,0.866,0.832,�k�k��,3.2,��
2018/01/22,14:50,0.873,1.459,0.916,1.726,1.166,0.484,0.867,0.833,�k,1.8,��
2018/01/22,15:00,0.872,1.459,0.918,1.724,1.166,0.484,0.868,0.832,�k,3.9,�L
2018/01/22,15:10,0.875,1.459,0.920,1.725,1.172,0.485,0.866,0.834,�k��,3.8,�L
2018/01/22,15:20,0.874,1.461,0.918,1.725,1.170,0.486,0.867,0.834,�k��,2.8,�L
2018/01/22,15:30,0.875,1.459,0.920,1.723,1.169,0.485,0.867,0.831,�k�k��,3.4,�L
2018/01/22,15:40,0.872,1.457,0.916,1.720,1.164,0.487,0.865,0.831,�k�k��,4.1,�L
2018/01/22,15:50,0.868,1.449,0.915,1.716,1.156,0.486,0.863,0.830,�k��,3.6,�L
2018/01/22,16:00,0.866,1.441,0.910,1.709,1.151,0.486,0.862,0.829,�k��,5.2,�L
2018/01/22,16:10,0.862,1.434,0.906,1.700,1.145,0.486,0.858,0.827,�k��,5.4,�L
2018/01/22,16:20,0.858,1.426,0.904,1.692,1.135,0.481,0.857,0.826,�k��,7.1,�L
2018/01/22,16:30,0.855,1.417,0.896,1.684,1.129,0.482,0.855,0.826,�k��,7.6,�L
2018/01/22,16:40,0.851,1.411,0.894,1.676,1.127,0.479,0.854,0.824,�k��,8.2,�L
2018/01/22,16:50,0.847,1.406,0.891,1.676,1.121,0.480,0.850,0.824,�k��,8.1,�L
2018/01/22,17:00,0.846,1.400,0.891,1.671,1.118,0.479,0.849,0.824,�k��,8.2,�L
2018/01/22,17:10,0.843,1.398,0.891,1.669,1.118,0.479,0.848,0.825,�k��,8.6,�L
2018/01/22,17:20,0.843,1.397,0.887,1.667,1.116,0.477,0.849,0.823,�k��,7.2,�L
2018/01/22,17:30,0.841,1.394,0.888,1.668,1.115,0.476,0.849,0.825,�k��,7.4,�L
2018/01/22,17:40,0.839,1.393,0.885,1.665,1.111,0.475,0.850,0.825,�k��,7.2,�L
2018/01/22,17:50,0.838,1.392,0.885,1.665,1.108,0.476,0.847,0.825,�k��,7.5,�L
2018/01/22,18:00,0.836,1.387,0.882,1.656,1.105,0.477,0.847,0.823,�k��,7.5,�L
2018/01/22,18:10,0.836,1.382,0.878,1.651,1.101,0.477,0.844,0.822,�k��,8.2,�L
2018/01/22,18:20,0.835,1.380,0.877,1.651,1.101,0.475,0.845,0.822,�k��,7.1,�L
2018/01/22,18:30,0.831,1.375,0.874,1.646,1.098,0.474,0.844,0.821,�k�k��,6.0,�L
2018/01/22,18:40,0.831,1.371,0.874,1.642,1.092,0.474,0.844,0.822,�k�k��,7.9,�L
2018/01/22,18:50,0.830,1.367,0.870,1.641,1.090,0.474,0.842,0.821,�k�k��,7.1,�L
2018/01/22,19:00,0.828,1.366,0.873,1.639,1.086,0.473,0.842,0.820,�k�k��,8.5,�L
2018/01/22,19:10,0.828,1.364,0.873,1.638,1.085,0.473,0.842,0.819,�k�k��,9.3,�L
2018/01/22,19:20,0.827,1.361,0.871,1.629,1.082,0.472,0.841,0.817,�k�k��,9.7,�L
2018/01/22,19:30,0.824,1.361,0.869,1.628,1.080,0.472,0.841,0.817,�k�k��,9.8,�L
2018/01/22,19:40,0.824,1.359,0.869,1.627,1.075,0.472,0.841,0.819,�k�k��,9.7,�L
2018/01/22,19:50,0.822,1.357,0.866,1.625,1.075,0.470,0.840,0.817,�k�k��,9.1,�L
2018/01/22,20:00,0.821,1.357,0.865,1.626,1.072,0.471,0.839,0.816,�k�k��,9.7,�L
2018/01/22,20:10,0.819,1.354,0.865,1.623,1.075,0.470,0.839,0.818,�k�k��,9.2,�L
2018/01/22,20:20,0.820,1.353,0.864,1.618,1.069,0.469,0.837,0.814,�k�k��,9.8,�L
2018/01/22,20:30,0.818,1.349,0.861,1.619,1.068,0.471,0.837,0.816,�k�k��,8.3,�L
2018/01/22,20:40,0.818,1.344,0.859,1.614,1.065,0.469,0.835,0.814,�k�k��,9.4,�L
2018/01/22,20:50,0.816,1.341,0.858,1.607,1.063,0.468,0.833,0.813,�k�k��,10.5,�L
2018/01/22,21:00,0.810,1.338,0.853,1.605,1.060,0.467,0.830,0.812,�k�k��,9.9,�L
2018/01/22,21:10,0.809,1.330,0.855,1.599,1.056,0.467,0.829,0.811,�k�k��,9.3,�L
2018/01/22,21:20,0.806,1.325,0.850,1.592,1.051,0.468,0.824,0.810,�k�k��,9.8,�L
2018/01/22,21:30,0.799,1.321,0.849,1.581,1.044,0.465,0.822,0.806,�k�k��,10.4,�L
2018/01/22,21:40,0.796,1.314,0.846,1.574,1.037,0.467,0.822,0.806,�k�k��,9.2,�L
2018/01/22,21:50,0.791,1.306,0.839,1.564,1.031,0.463,0.816,0.803,�k�k��,9.8,�L
2018/01/22,22:00,0.782,1.293,0.836,1.550,1.018,0.462,0.812,0.798,�k�k��,8.6,�L
2018/01/22,22:10,0.777,1.277,0.828,1.533,1.010,0.461,0.809,0.794,�k�k��,10.4,�L
2018/01/22,22:20,0.767,1.259,0.819,1.515,0.994,0.457,0.803,0.789,�k�k��,10.5,�L
2018/01/22,22:30,0.756,1.240,0.809,1.499,0.979,0.454,0.797,0.784,�k�k��,9.1,�L
2018/01/22,22:40,0.748,1.223,0.802,1.482,0.966,0.450,0.788,0.780,�k�k��,10.4,�L
2018/01/22,22:50,0.739,1.211,0.794,1.471,0.957,0.448,0.784,0.777,�k�k��,9.6,�L
2018/01/22,23:00,0.735,1.201,0.788,1.461,0.946,0.447,0.780,0.774,�k�k��,8.6,�L
2018/01/22,23:10,0.727,1.190,0.783,1.447,0.937,0.447,0.780,0.771,�k�k��,8.7,�L
2018/01/22,23:20,0.718,1.175,0.775,1.430,0.927,0.442,0.775,0.770,�k�k��,9.0,�L
2018/01/22,23:30,0.710,1.161,0.767,1.417,0.915,0.440,0.769,0.764,�k�k��,10.2,�L
2018/01/22,23:40,0.706,1.150,0.762,1.406,0.906,0.437,0.765,0.762,�k�k��,9.4,�L
2018/01/22,23:50,0.701,1.138,0.755,1.397,0.902,0.435,0.763,0.765,�k�k��,8.3,�L
